Weather History for KMDZ - October, 2014

Change the Weather History Date:

Thursday, October 23, 2014

  Actual Average Record
Temperature  
Mean Temperature 42 °F -  
Max Temperature 45 °F 52 °F 77 °F (1963)
Min Temperature 40 °F 31 °F 13 °F (1969)
Degree Days  
Heating Degree Days 22    
Moisture  
Dew Point 42 °F    
Average Humidity 93    
Maximum Humidity 100    
Minimum Humidity 73    
Precipitation  
Precipitation 0.16 in - - ()
Sea Level Pressure  
Sea Level Pressure 30.05 in    
Wind  
Wind Speed 7 mph (South)    
Max Wind Speed 10 mph    
Max Gust Speed -    
Visibility 4 miles    
Events Fog , Rain    
Averages and records for this station are not official NWS values.
T = Trace of Precipitation, MM = Missing Value Source: NWS Daily Summary

Daily Weather History Graph

Daily Weather History Graph

Search for Another Location

Airport or City:

Trip Planner

Search our weather history database for the weather conditions in past years. The results will help you decide how hot, cold, wet, or windy it might be!

Date:

Astronomy

Oct. 23, 2014 Rise Set
Actual Time 7:27 AM CDT 6:02 PM CDT
Civil Twilight 6:57 AM CDT 6:32 PM CDT
Nautical Twilight 6:23 AM CDT 7:06 PM CDT
Astronomical Twilight 5:49 AM CDT 7:40 PM CDT
Moon 7:06 AM CDT (10/23) 6:04 PM CDT (10/23)
Length of Visible Light 11h 35m
Length of Day
10h 35m
Waning Crescent, 0% of the Moon is Illuminated
Oct 23
Waning Crescent
Oct 23
New
Oct 30
First Quarter
Nov 6
Full
Nov 14
Last Quarter

Hourly Weather History & Observations

Time (CDT) Temp. Windchill Dew Point Humidity Pressure Visibility Wind Dir Wind Speed Gust Speed Precip Events Conditions
12:15 AM 42.8 °F 37.5 °F 35.6 °F 76% 30.14 in 10.0 mi SSE 9.2 mph - N/A   Scattered Clouds
12:35 AM 42.8 °F 38.0 °F 35.6 °F 76% 30.14 in 10.0 mi SSE 8.1 mph - N/A   Scattered Clouds
12:55 AM 43.9 °F 39.3 °F 35.6 °F 73% 30.13 in 10.0 mi SSE 8.1 mph - N/A   Mostly Cloudy
1:15 AM 43.7 °F 39.1 °F 36.0 °F 74% 30.13 in 10.0 mi SSE 8.1 mph - N/A   Overcast
1:35 AM 42.8 °F 38.0 °F 35.8 °F 76% 30.13 in 10.0 mi SSE 8.1 mph - N/A   Mostly Cloudy
1:55 AM 42.6 °F 38.4 °F 35.8 °F 77% 30.13 in 10.0 mi SSE 6.9 mph - N/A   Mostly Cloudy
2:15 AM 42.3 °F 36.8 °F 35.8 °F 78% 30.12 in 10.0 mi SSE 9.2 mph - N/A   Mostly Cloudy
2:35 AM 42.4 °F 38.1 °F 35.6 °F 77% 30.12 in 10.0 mi SSE 6.9 mph - N/A   Mostly Cloudy
2:55 AM 42.4 °F 37.5 °F 35.8 °F 77% 30.11 in 10.0 mi SSE 8.1 mph - N/A   Overcast
3:15 AM 42.8 °F 38.0 °F 36.0 °F 77% 30.10 in 10.0 mi SSE 8.1 mph - N/A   Overcast
3:35 AM 42.3 °F 37.9 °F 36.5 °F 80% 30.10 in 10.0 mi SSE 6.9 mph - N/A   Light Drizzle
3:55 AM 42.1 °F 37.1 °F 36.9 °F 82% 30.10 in 10.0 mi SSE 8.1 mph - N/A Rain Light Rain
4:15 AM 41.2 °F 37.3 °F 37.9 °F 88% 30.10 in 7.0 mi SSE 5.8 mph - N/A Rain Light Rain
4:35 AM 41.0 °F 36.4 °F 38.3 °F 90% 30.09 in 10.0 mi SSE 6.9 mph - N/A Rain Rain
4:55 AM 40.8 °F 35.6 °F 38.8 °F 93% 30.09 in 10.0 mi SSE 8.1 mph - 0.01 in Rain Light Rain
5:15 AM 40.6 °F 36.0 °F 38.8 °F 93% 30.08 in 7.0 mi SE 6.9 mph - N/A Rain Light Rain
5:35 AM 40.6 °F 36.0 °F 38.8 °F 93% 30.08 in 7.0 mi SSE 6.9 mph - N/A   Overcast
5:55 AM 41.0 °F 35.8 °F 38.8 °F 92% 30.08 in 10.0 mi SSE 8.1 mph - N/A   Overcast
6:15 AM 41.2 °F 35.5 °F 39.2 °F 93% 30.07 in 10.0 mi SSE 9.2 mph - N/A   Mostly Cloudy
6:35 AM 41.0 °F 36.4 °F 39.0 °F 93% 30.07 in 7.0 mi SSE 6.9 mph - N/A   Overcast
6:55 AM 41.0 °F 34.7 °F 38.8 °F 92% 30.06 in 7.0 mi SSE 10.4 mph - N/A   Overcast
7:15 AM 41.0 °F 35.8 °F 38.7 °F 91% 30.06 in 7.0 mi SSE 8.1 mph - N/A   Overcast
7:35 AM 41.0 °F 35.8 °F 38.5 °F 91% 30.06 in 7.0 mi SSE 8.1 mph - N/A   Overcast
7:55 AM 41.0 °F 34.7 °F 38.8 °F 92% 30.05 in 7.0 mi SSE 10.4 mph - N/A   Drizzle
8:15 AM 41.0 °F 36.4 °F 39.2 °F 93% 30.06 in 4.0 mi SSE 6.9 mph - 0.01 in Rain Light Rain
8:35 AM 40.8 °F 35.6 °F 39.2 °F 94% 30.05 in 4.0 mi SSE 8.1 mph - 0.01 in Rain Light Rain
8:55 AM 41.0 °F 35.8 °F 39.4 °F 94% 30.05 in 4.0 mi SSE 8.1 mph - 0.02 in Rain Light Rain
9:15 AM 41.0 °F 36.4 °F 39.9 °F 96% 30.05 in 4.0 mi SSE 6.9 mph - 0.01 in Rain Light Rain
9:35 AM 41.5 °F 37.8 °F 40.3 °F 95% 30.05 in 4.0 mi SSE 5.8 mph - 0.03 in Rain Light Rain
9:55 AM 41.4 °F 36.8 °F 40.3 °F 96% 30.05 in 3.0 mi SSE 6.9 mph - 0.04 in Rain Rain
10:15 AM 41.4 °F 36.2 °F 40.5 °F 97% 30.06 in 2.0 mi SSE 8.1 mph - 0.04 in Rain Rain
10:35 AM 41.5 °F 37.8 °F 41.0 °F 98% 30.06 in 2.0 mi SSE 5.8 mph - 0.06 in Rain Light Rain
10:55 AM 42.3 °F 37.9 °F 41.5 °F 97% 30.05 in 2.5 mi SSE 6.9 mph - 0.06 in   Drizzle
11:15 AM 42.4 °F 37.5 °F 41.5 °F 97% 30.05 in 3.0 mi South 8.1 mph - N/A   Drizzle
11:35 AM 42.8 °F 38.0 °F 41.9 °F 97% 30.05 in 3.0 mi South 8.1 mph - 0.01 in Rain Light Rain
11:55 AM 43.2 °F 38.4 °F 42.1 °F 96% 30.04 in 4.0 mi South 8.1 mph - 0.01 in   Drizzle
12:15 PM 43.3 °F 39.2 °F 42.3 °F 96% 30.04 in 4.0 mi South 6.9 mph - 0.01 in Rain Rain
12:35 PM 43.3 °F 39.9 °F 42.4 °F 97% 30.03 in 4.0 mi South 5.8 mph - 0.01 in   Drizzle
12:55 PM 43.7 °F 40.3 °F 42.8 °F 97% 30.03 in 3.0 mi South 5.8 mph - 0.01 in Rain Rain
1:15 PM 43.7 °F 41.1 °F 43.0 °F 97% 30.02 in 3.0 mi SSE 4.6 mph - 0.01 in Rain Light Rain
1:35 PM 44.1 °F 40.8 °F 43.3 °F 97% 30.02 in 4.0 mi SSE 5.8 mph - 0.01 in   Overcast
1:55 PM 44.6 °F 43.1 °F 43.9 °F 97% 30.02 in 3.0 mi SSE 3.5 mph - 0.01 in   Overcast
2:15 PM 45.0 °F 41.2 °F 44.4 °F 98% 30.02 in 3.0 mi South 6.9 mph - N/A   Overcast
2:35 PM 45.1 °F 42.8 °F 44.4 °F 97% 30.01 in 3.0 mi SSE 4.6 mph - N/A   Overcast
2:55 PM 45.3 °F 41.6 °F 44.6 °F 97% 30.02 in 3.0 mi SSW 6.9 mph - N/A   Overcast
3:15 PM 45.5 °F 42.5 °F 44.6 °F 97% 30.01 in 3.0 mi South 5.8 mph - N/A   Overcast
3:35 PM 45.5 °F 42.5 °F 45.0 °F 98% 30.01 in 2.5 mi South 5.8 mph - N/A   Overcast
3:55 PM 45.5 °F 43.2 °F 45.0 °F 98% 30.01 in 1.8 mi SW 4.6 mph - N/A   Overcast
4:15 PM 45.7 °F 44.4 °F 45.1 °F 98% 30.01 in 1.2 mi South 3.5 mph - N/A   Overcast
4:35 PM 45.9 °F 44.6 °F 45.5 °F 99% 30.01 in 1.0 mi SSE 3.5 mph - N/A   Overcast
4:55 PM 45.7 °F 44.4 °F 45.5 °F 99% 30.00 in 0.5 mi South 3.5 mph - N/A Fog Fog
5:15 PM 45.7 °F 44.4 °F 45.5 °F 99% 30.01 in 0.5 mi South 3.5 mph - N/A Fog Fog
5:35 PM 45.7 °F 44.4 °F 45.5 °F 99% 30.00 in 0.2 mi SSE 3.5 mph - N/A Fog Fog
5:55 PM 45.5 °F 44.2 °F 45.5 °F 100% 30.00 in 0.2 mi South 3.5 mph - N/A Fog Fog
6:15 PM 45.5 °F 43.2 °F 45.5 °F 100% 30.02 in 0.5 mi SW 4.6 mph - N/A Fog Fog
6:35 PM 45.5 °F 44.2 °F 45.3 °F 99% 30.02 in 0.2 mi South 3.5 mph - N/A Fog Fog
6:55 PM 45.5 °F 44.2 °F 45.1 °F 99% 30.02 in 0.2 mi South 3.5 mph - N/A Fog Fog
7:15 PM 45.5 °F 44.2 °F 45.5 °F 100% 30.03 in 0.5 mi South 3.5 mph - N/A Fog Fog
7:35 PM 45.5 °F 44.2 °F 45.5 °F 100% 30.03 in 0.5 mi South 3.5 mph - N/A Fog Fog
7:55 PM 45.5 °F - 45.5 °F 100% 30.03 in 0.5 mi Calm Calm - N/A Fog Fog
8:15 PM 45.5 °F - 45.5 °F 100% 30.03 in 0.5 mi Calm Calm - N/A Fog Fog
8:35 PM 45.5 °F - 45.5 °F 100% 30.02 in 0.5 mi Calm Calm - N/A Fog Fog
8:55 PM 45.5 °F 43.2 °F 45.5 °F 100% 30.02 in 0.5 mi SSW 4.6 mph - N/A Fog Fog
9:15 PM 45.5 °F 44.2 °F 45.5 °F 100% 30.02 in 1.0 mi SSW 3.5 mph - N/A   Overcast
9:35 PM 45.5 °F 44.2 °F 45.5 °F 100% 30.02 in 0.5 mi South 3.5 mph - N/A Fog Fog
9:55 PM 45.5 °F 43.2 °F 45.5 °F 100% 30.02 in 1.0 mi South 4.6 mph - N/A   Overcast
10:15 PM 45.7 °F 44.4 °F 45.5 °F 99% 30.02 in 1.5 mi SSW 3.5 mph - N/A   Overcast
10:35 PM 45.5 °F 44.2 °F 45.5 °F 100% 30.02 in 1.8 mi SSW 3.5 mph - N/A   Overcast
10:55 PM 45.5 °F 44.2 °F 45.5 °F 100% 30.02 in 2.0 mi WSW 3.5 mph - N/A   Overcast
11:15 PM 45.5 °F 43.2 °F 45.1 °F 99% 30.02 in 2.0 mi WSW 4.6 mph - N/A   Overcast
11:35 PM 45.1 °F 42.8 °F 45.0 °F 99% 30.02 in 1.8 mi WSW 4.6 mph - N/A   Overcast
11:55 PM 45.1 °F 42.8 °F 45.0 °F 99% 30.01 in 1.0 mi WSW 4.6 mph - N/A   Overcast